WetterOnline ( http://www.wetteronline.de )

Wetter aktuell Augsburg

Aktuelles Wetter: Augsburg/Mühlhausen (477m)

6-stündlich | Neueste Meldungen
Ortszeit Temperatur Wetter
So, 20.01. 1:00 -8.5° C wolkenlos
Sa, 19.01. 19:00 -4.2° C leicht bewölkt
Sa, 19.01. 13:00 -2.3° C leicht bewölkt
Sa, 19.01. 7:00 -5.7° C fast wolkenlos
Sa, 19.01. 1:00 -3.0° C bedeckt
Fr, 18.01. 19:00 -2.0° C bedeckt
Fr, 18.01. 13:00 0.6° C bedeckt
Fr, 18.01. 7:00 -0.4° C bedeckt
Ortszeit Temperatur Wetter
So, 20.01. 6:00 -9.1° C bedeckt
So, 20.01. 5:50 -9.1° C bedeckt
So, 20.01. 5:40 -9.3° C wolkig
So, 20.01. 5:30 -8.8° C wolkig
So, 20.01. 5:20 -8.8° C bedeckt
So, 20.01. 5:10 -8.8° C bedeckt
So, 20.01. 5:00 -8.4° C bedeckt
So, 20.01. 4:30 -8.4° C Nebel
So, 20.01. 4:00 -8.5° C bewölkt
So, 20.01. 3:30 -8.4° C Nebel
So, 20.01. 3:00 -7.9° C Nebel
Ortszeit Relative Feuchte Sichtweite
So, 20.01. 1:00 95% 4.3 km
Sa, 19.01. 19:00 91% 8 km
Sa, 19.01. 13:00 78% 14 km
Sa, 19.01. 7:00 95% 8 km
Sa, 19.01. 1:00 85% 21 km
Fr, 18.01. 19:00 88% 20 km
Fr, 18.01. 13:00 72% 50 km
Fr, 18.01. 7:00 79% 45 km
Ortszeit Relative Feuchte Sichtweite
So, 20.01. 6:00 98% 4.0 km
So, 20.01. 5:50 98% -
So, 20.01. 5:40 99% -
So, 20.01. 5:30 97% 3.0 km
So, 20.01. 5:20 97% -
So, 20.01. 5:10 99% -
So, 20.01. 5:00 96% 2.7 km
So, 20.01. 4:30 97% 100 m
So, 20.01. 4:00 95% 2.6 km
So, 20.01. 3:30 98% 0.2 km
So, 20.01. 3:00 98% 100 m
Ortszeit Niederschlagsmenge Niederschlagsart
So, 20.01. 1:00 0.0 l/m2 in 6 Std. -
Sa, 19.01. 19:00 0.0 l/m2 in 12 Std. -
Sa, 19.01. 13:00 0.0 l/m2 in 6 Std. -
Sa, 19.01. 7:00 0.0 l/m2 in 12 Std. -
Sa, 19.01. 1:00 0.0 l/m2 in 6 Std. -
Fr, 18.01. 19:00 0.1 l/m2 in 12 Std. Schnee
Fr, 18.01. 13:00 0.1 l/m2 in 6 Std. Schnee, Niederschlag
Fr, 18.01. 7:00 0.4 l/m2 in 12 Std. Schnee
Ortszeit Niederschlagsmenge Niederschlagsart
So, 20.01. 6:00 0.0 l/m2 in 1 Std. -
So, 20.01. 5:50 keine Meldung -
So, 20.01. 5:40 keine Meldung -
So, 20.01. 5:30 0.0 l/m2 in 1 Std. -
So, 20.01. 5:20 keine Meldung -
So, 20.01. 5:10 keine Meldung -
So, 20.01. 5:00 0.0 l/m2 in 1 Std. -
So, 20.01. 4:30 0.0 l/m2 in 1 Std. -
So, 20.01. 4:00 0.0 l/m2 in 1 Std. -
So, 20.01. 3:30 0.0 l/m2 in 1 Std. -
So, 20.01. 3:00 0.0 l/m2 in 1 Std. -
Ortszeit Stärke Spitze Richtung
km/h Bft. km/h Grad Sektor
So, 20.01. 1:00 4 1 7 160° S
Sa, 19.01. 19:00 4 1 18 140° SO
Sa, 19.01. 13:00 13 3 26 170° S
Sa, 19.01. 7:00 7 2 18 60° NO
Sa, 19.01. 1:00 13 3 22 90° O
Fr, 18.01. 19:00 7 2 14 70° O
Fr, 18.01. 13:00 13 3 26 310° NW
Fr, 18.01. 7:00 17 3 37 260° W
Ortszeit Stärke Spitze Richtung
km/h Bft. km/h Grad Sektor
So, 20.01. 6:00 4 1 7 150° SO
So, 20.01. 5:50 4 1 - 150° SO
So, 20.01. 5:40 2 1 - 140° SO
So, 20.01. 5:30 2 1 6 150° SO
So, 20.01. 5:20 2 1 - 150° SO
So, 20.01. 5:10 2 1 - 160° S
So, 20.01. 5:00 4 1 7 170° S
So, 20.01. 4:30 6 1 7 130° SO
So, 20.01. 4:00 6 1 7 160° S
So, 20.01. 3:30 4 1 7 170° S
So, 20.01. 3:00 6 1 7 160° S
Ortszeit Untergrenze Bedeckung Gattung
total tief tief mittel hoch
So, 20.01. 1:00 - 0/8 0/8 - - -
Sa, 19.01. 19:00 1800 m 5/8 - - - -
Sa, 19.01. 13:00 480 m 8/8 1/8 - - -
Sa, 19.01. 7:00 4200 m 1/8 1/8 - - -
Sa, 19.01. 1:00 4200 m 8/8 8/8 - - -
Fr, 18.01. 19:00 5400 m 8/8 8/8 - - -
Fr, 18.01. 13:00 690 m 8/8 8/8 - - -
Fr, 18.01. 7:00 870 m 8/8 8/8 - - -
Ortszeit Bedeckungsgrad in Achtel und Wolkenuntergrenze
So, 20.01. 6:00 8(3900m) 8(8100m)
So, 20.01. 5:50 8(3900m) 8(8100m)
So, 20.01. 5:40 1(1230m) 7(3900m) 7(6000m)
So, 20.01. 5:30 2(630m) 7(3900m) 9(6000m)
So, 20.01. 5:20 9 9 9
So, 20.01. 5:10 9 9 9
So, 20.01. 5:00 9 9 9
So, 20.01. 4:30 7(<30m)
So, 20.01. 4:00 4(60m) 7(3900m) 7(4500m)
So, 20.01. 3:30 7(<30m) 8(90m)
So, 20.01. 3:00 8(<30m)
Ortszeit Luftdruck NN (hPa) Tendenz (hPa in 3 Std.)
So, 20.01. 1:00 1017 - 0,1
Sa, 19.01. 19:00 1017 - 0,3
Sa, 19.01. 13:00 1018 - 1,0
Sa, 19.01. 7:00 1020 - 0,5
Sa, 19.01. 1:00 1020 - 1,2
Fr, 18.01. 19:00 1022 - 0,2
Fr, 18.01. 13:00 1021 + 0,1
Fr, 18.01. 7:00 1019 + 2,4
Ortszeit Luftdruck NN (hPa) Tendenz (hPa in 3 Std.)
So, 20.01. 6:00 1017 - 0,2
So, 20.01. 5:50 1017 keine Meldung
So, 20.01. 5:40 1017 keine Meldung
So, 20.01. 5:30 1017 - 0,3
So, 20.01. 5:20 1017 keine Meldung
So, 20.01. 5:10 1017 keine Meldung
So, 20.01. 5:00 1017 - 0,1
So, 20.01. 4:30 1017 - 0,2
So, 20.01. 4:00 1017 - 0,2
So, 20.01. 3:30 1017 - 0,3
So, 20.01. 3:00 1017 - 0,3
Ortszeit Schneehöhe (cm)
So, 20.01. 1:00 0
Sa, 19.01. 19:00 0
Sa, 19.01. 13:00 0
Sa, 19.01. 7:00 0
Sa, 19.01. 1:00 0
Fr, 18.01. 19:00 0
Fr, 18.01. 13:00 0
Fr, 18.01. 7:00 0
Ortszeit Schneehöhe (cm)
So, 20.01. 6:00 0
So, 20.01. 5:50 0
So, 20.01. 5:40 0
So, 20.01. 5:30 0
So, 20.01. 5:20 0
So, 20.01. 5:10 0
So, 20.01. 5:00 0
So, 20.01. 4:30 0
So, 20.01. 4:00 0
So, 20.01. 3:30 0
So, 20.01. 3:00 0
Link zu dieser Seite / Seite empfehlen

Das Wetter in ...